GFSNGP_700_rhum_210.txt.gz
RH
83 78 73 70 65 60 61 54 65 36 37 15 12 23 33 37 34 36 37 34 37 66 71 86 93 100 100 99 99 100 100 100 100 100 100 100 100 100 100 99 96 60 52 57
95 93 81 72 60 56 38 43 48 33 24 16 21 25 34 39 30 31 34 37 33 70 72 80 94 97 99 100 97 100 99 100 100 100 100 99 99 97 97 84 58 63 58 57
82 84 88 91 46 23 17 17 20 33 17 25 27 33 34 39 41 30 30 34 31 57 80 86 95 95 96 99 100 99 99 99 100 99 99 99 98 96 84 71 65 60 61 60
61 82 86 49 50 54 52 31 44 47 46 44 41 27 24 30 37 39 33 30 30 45 56 62 69 96 96 100 99 100 99 100 99 99 98 92 84 78 72 66 65 66 62 72
82 72 58 44 41 44 48 31 51 48 41 43 44 34 30 35 37 36 44 31 39 51 56 60 95 100 100 98 92 100 99 100 100 94 83 82 78 69 70 72 69 72 76 78
96 87 81 58 55 62 62 65 72 65 60 47 35 42 33 40 43 40 38 38 34 50 56 70 98 99 100 97 99 84 100 97 90 84 80 74 70 75 74 74 80 82 83 75
97 96 88 74 59 58 76 86 66 90 82 72 55 57 44 46 47 45 43 36 34 38 62 92 99 99 99 100 99 97 88 88 94 88 73 72 75 75 79 85 89 86 72 46
84 81 74 62 83 96 95 95 88 86 93 79 61 55 54 49 53 48 47 41 39 44 52 96 100 100 96 97 99 98 96 85 82 73 73 76 79 85 95 94 88 70 44 25
86 79 74 91 89 83 93 88 92 92 84 82 67 59 62 49 54 53 52 52 52 55 63 78 100 100 99 96 88 79 81 81 73 70 77 91 96 96 95 87 71 42 22 11
82 60 49 34 41 82 71 80 82 93 93 93 85 72 74 59 52 56 51 59 62 63 67 74 79 83 89 82 80 84 84 80 86 96 97 97 96 95 89 73 39 17 7 5
80 42 34 32 41 34 54 79 81 87 92 95 97 85 86 82 57 66 60 57 78 73 71 78 79 82 92 94 95 93 91 95 97 97 96 97 95 92 78 39 13 6 6 7
54 28 47 38 35 37 48 60 66 61 80 96 96 92 94 96 70 81 70 65 77 92 83 83 89 87 92 96 96 96 97 97 96 96 96 94 90 81 33 10 6 6 8 8
77 68 66 57 47 40 48 44 45 50 55 66 87 95 92 97 96 91 73 82 86 89 92 90 90 90 91 93 94 97 96 95 95 95 94 90 82 26 8 6 7 9 10 12
98 98 91 69 64 62 67 39 43 50 47 49 95 82 84 97 94 79 76 96 94 89 94 99 100 100 97 96 96 97 95 96 96 94 93 76 20 6 6 10 12 13 16 19
98 97 94 88 95 83 87 76 51 44 43 50 84 95 100 97 97 85 89 99 98 90 91 97 100 100 100 99 97 97 96 96 96 96 72 14 6 7 11 13 15 17 20 23
83 81 72 84 78 81 84 73 69 63 55 46 87 96 98 99 95 96 97 97 97 89 88 96 97 97 97 98 98 98 98 98 93 34 9 6 7 11 14 16 18 21 24 27
93 75 84 88 82 70 79 74 77 69 50 47 79 93 97 99 96 98 99 96 97 97 97 97 97 97 97 98 98 98 96 58 14 7 6 8 12 15 18 20 23 25 25 26
95 94 87 83 90 83 66 67 60 61 43 38 76 96 96 98 97 98 98 97 96 97 98 98 97 97 97 98 96 95 44 12 7 7 9 12 17 19 21 23 24 25 28 31
64 64 64 74 80 92 82 76 62 62 50 45 93 92 96 97 97 97 97 97 97 96 96 96 96 97 97 96 93 47 11 11 8 10 13 18 20 23 25 26 26 32 35 38
70 63 56 60 71 81 85 82 66 69 63 83 97 95 97 96 96 97 97 97 96 96 97 96 96 95 88 52 43 37 10 9 11 14 18 23 26 26 25 28 39 42 44 44
96 79 64 58 78 84 86 84 78 81 78 100 91 96 96 97 97 96 97 96 96 96 96 95 95 94 66 26 17 11 9 13 14 16 20 24 27 29 35 45 46 46 47 48
96 95 78 71 80 84 95 90 78 81 95 100 94 95 97 97 96 96 95 96 96 95 96 92 82 38 16 9 10 11 13 16 20 25 32 37 40 45 50 51 51 52 53 46
96 96 98 99 97 90 91 90 78 83 100 88 96 97 98 97 97 97 96 96 96 92 48 22 12 9 10 11 11 14 17 20 23 30 40 46 52 55 55 55 57 58 46 39
97 96 97 97 97 97 94 85 93 92 93 94 97 96 97 96 95 95 95 86 68 52 35 12 9 10 11 12 13 15 20 24 27 33 44 54 60 60 61 62 60 45 42 50
97 98 98 98 98 97 100 100 99 96 97 96 96 97 97 97 95 91 74 42 22 14 10 11 13 15 17 18 20 23 28 32 37 47 60 66 67 67 65 54 45 49 56 61
97 97 98 98 98 98 98 98 96 96 98 95 92 81 65 47 37 27 18 14 14 16 18 19 20 22 25 27 29 31 35 47 61 68 68 68 67 56 49 53 60 64 68 71
87 91 95 97 96 95 94 92 92 93 89 73 44 32 24 21 18 20 22 23 23 22 22 24 29 31 33 35 40 53 67 70 69 66 60 52 54 61 66 69 73 76 77 78

GFSNGP_700_rhum_213.txt.gz
RH
93 97 96 89 83 79 82 76 86 64 62 33 22 36 35 25 37 38 39 30 35 33 39 69 72 84 85 90 92 96 94 99 100 100 99 100 100 100 100 100 100 99 98 96
15 34 49 61 62 72 70 60 60 58 41 31 52 47 38 34 28 34 42 32 31 33 33 69 75 86 98 99 100 100 100 100 100 100 100 100 100 100 100 100 100 99 96 96
37 25 39 50 13 18 25 49 64 70 72 63 44 45 34 39 35 31 38 40 34 33 30 69 81 96 98 99 100 100 99 100 99 99 100 100 100 99 99 99 98 98 94 92
83 70 77 16 46 55 71 72 72 85 81 71 52 29 44 54 43 30 28 40 37 35 32 64 91 98 100 99 99 100 99 99 99 99 99 99 99 98 98 98 97 95 94 79
96 79 59 41 31 61 71 89 78 75 82 70 50 34 38 52 46 40 39 38 38 41 36 63 94 95 91 100 96 99 99 99 99 99 99 98 98 97 97 95 94 89 71 74
77 87 77 57 72 79 89 96 96 96 89 78 63 52 34 44 48 45 42 40 41 39 43 55 69 69 100 100 99 98 99 99 98 99 98 98 95 86 80 78 75 75 86 85
97 95 88 70 68 48 77 90 81 88 90 90 92 82 56 55 57 54 47 47 50 42 51 64 76 99 100 93 98 99 99 99 98 95 92 88 81 76 76 77 86 90 90 87
89 82 80 53 64 67 60 64 76 70 76 77 74 88 76 56 64 64 59 60 57 54 50 65 74 100 100 99 100 99 99 99 97 96 90 77 78 81 80 86 97 99 92 77
68 66 40 33 35 42 34 39 32 38 48 58 59 80 80 54 65 69 68 71 81 72 66 69 81 99 99 99 99 98 98 97 96 95 82 76 79 81 86 99 98 94 82 58
84 18 55 64 41 35 35 38 41 40 41 50 63 76 90 82 82 75 71 74 100 86 79 92 99 99 96 96 97 98 99 97 96 85 77 80 87 97 97 95 94 89 67 36
92 67 60 58 69 72 69 67 73 55 53 50 73 67 89 90 90 92 76 66 100 100 87 100 100 100 100 93 97 96 95 95 92 90 93 96 96 95 96 93 89 77 46 17
86 76 97 92 79 90 99 86 70 72 55 78 67 70 80 95 98 97 92 86 100 100 100 94 100 100 98 96 96 95 96 95 95 96 96 96 96 96 94 92 83 47 15 7
96 92 93 82 94 69 72 74 76 69 69 61 54 56 55 78 99 96 96 98 100 100 100 99 98 97 92 90 99 97 96 96 97 96 96 96 97 98 96 86 53 15 6 8
98 98 88 86 81 77 72 68 62 63 64 64 52 50 49 66 74 84 91 97 98 98 99 99 97 97 96 95 97 97 95 97 96 96 96 96 95 94 89 42 8 6 9 10
97 97 96 93 86 69 70 68 64 64 57 58 65 49 48 84 95 100 88 97 97 98 98 97 98 97 97 97 97 98 97 96 96 96 96 96 94 68 17 7 7 10 12 14
72 80 92 96 90 90 82 76 65 63 75 55 62 55 49 95 83 89 92 97 96 98 98 98 98 98 97 96 96 96 96 97 98 98 98 89 50 12 7 8 12 14 16 18
76 67 71 69 85 94 94 98 86 72 76 63 63 58 84 99 98 96 98 97 97 98 97 97 97 97 96 96 96 96 97 98 98 96 78 32 10 7 8 12 16 18 22 24
77 70 58 59 58 78 82 96 89 76 70 63 53 51 97 100 99 100 97 96 97 97 97 96 97 98 97 97 96 94 96 97 94 61 17 9 9 11 15 18 22 25 26 26
98 99 90 68 59 61 77 95 96 82 73 66 54 67 97 98 96 98 96 96 97 97 97 97 97 97 96 96 100 99 94 92 62 18 12 10 12 16 21 24 26 25 25 29
96 98 93 84 69 60 89 92 94 84 78 68 53 83 95 96 96 96 96 97 97 97 96 97 96 96 95 96 96 94 61 29 21 12 11 12 14 17 20 23 25 28 34 40
97 98 97 80 70 83 96 95 96 83 79 79 81 96 96 96 96 96 96 96 96 95 96 97 96 96 96 95 95 90 24 13 9 10 11 13 16 21 27 33 37 42 45 48
97 97 98 89 100 98 96 99 94 92 100 98 96 96 98 98 97 96 97 97 95 97 96 96 96 96 94 88 39 12 10 11 11 13 15 17 19 22 29 38 46 51 54 54
97 97 99 98 97 98 98 98 94 97 100 98 97 98 97 96 97 97 97 97 97 95 95 95 94 81 46 11 10 10 10 11 12 14 15 17 20 24 32 44 55 60 61 60
99 97 96 97 97 97 97 97 100 100 97 97 97 97 97 96 94 96 95 96 95 94 96 89 54 14 10 12 13 13 13 13 15 16 20 24 27 34 49 61 64 63 60 52
98 98 98 98 97 99 100 98 98 97 97 96 97 97 96 95 96 96 96 96 87 50 23 13 12 14 16 17 18 18 20 22 24 26 30 39 54 64 65 63 59 50 44 46
94 95 96 97 98 98 97 99 94 94 96 96 97 96 91 76 59 43 32 24 19 19 21 22 22 22 23 24 26 29 32 33 39 49 59 64 64 59 52 47 49 55 60 63
53 56 71 88 93 93 90 87 86 89 82 77 53 37 32 29 30 29 28 27 26 25 25 25 25 27 32 40 50 56 59 60 57 53 49 48 49 52 58 62 65 66 65 61

GFSNGP_700_rhum_219.txt.gz
RH
43 47 49 51 55 55 59 60 61 52 48 39 43 53 61 51 31 23 19 21 22 38 37 37 35 33 30 56 69 71 68 68 68 73 78 87 98 100 95 94 100 100 100 100
62 44 42 36 34 33 33 34 41 51 50 46 49 52 57 50 53 46 30 30 19 27 43 39 36 34 34 40 71 74 72 76 79 73 77 95 99 100 100 100 100 100 100 99
62 50 65 48 43 48 47 41 44 31 32 56 55 54 56 63 63 63 48 42 22 19 41 40 38 38 35 44 81 83 78 85 89 91 99 100 99 99 100 100 99 100 100 99
84 72 53 38 45 48 75 69 75 63 75 92 92 83 77 92 81 75 68 52 44 27 43 43 39 41 32 70 100 99 86 91 96 84 98 93 99 99 99 100 99 99 99 99
77 52 42 37 40 76 98 86 96 97 95 94 95 94 86 76 79 77 71 61 57 53 42 47 42 44 40 99 94 100 98 98 97 98 100 100 99 98 99 99 99 100 99 98
78 66 52 31 51 65 53 55 94 93 83 78 75 76 80 70 63 60 58 58 53 64 56 51 51 51 83 98 82 98 99 93 99 98 99 100 99 99 99 99 99 98 98 98
47 52 50 46 45 54 61 54 70 73 69 68 72 76 71 56 61 59 62 60 57 56 66 66 62 98 100 83 88 85 99 98 98 98 98 98 98 99 98 98 98 98 97 97
55 53 62 49 58 80 78 70 59 56 51 46 48 57 52 41 46 55 55 56 56 51 70 84 94 100 100 92 99 92 100 92 82 97 98 98 98 98 98 97 97 97 97 97
75 77 55 50 52 58 63 87 88 90 67 56 45 38 38 46 28 39 39 42 50 55 66 83 99 98 100 98 93 100 98 85 89 92 94 98 97 97 97 97 97 96 96 91
100 89 87 88 82 89 92 96 98 96 90 88 87 79 68 50 47 21 26 28 37 62 81 74 98 99 99 100 99 98 98 99 98 98 97 97 96 96 96 96 95 95 91 87
98 83 94 98 96 97 94 88 91 98 99 96 97 88 92 72 42 28 24 21 32 55 87 66 96 99 98 100 98 99 98 98 98 98 98 97 98 97 96 96 93 87 84 86
99 89 96 82 79 83 86 81 89 96 87 92 100 79 83 76 50 29 29 31 29 54 86 79 95 97 99 100 99 99 98 97 97 97 97 97 93 77 83 89 88 91 91 90
93 84 80 72 71 70 70 62 63 70 73 92 86 83 83 78 57 45 35 42 33 48 87 97 96 97 98 98 98 98 98 98 97 96 95 94 94 94 96 97 98 97 93 88
64 61 55 53 49 49 49 45 51 46 54 88 93 92 88 83 59 49 42 62 63 61 90 96 95 96 97 98 99 99 98 98 97 96 96 96 98 100 100 96 99 92 89 83
70 76 83 71 55 56 54 50 46 39 43 61 96 96 93 91 62 51 57 57 54 55 58 92 97 97 97 97 98 98 98 97 97 96 96 95 92 93 93 95 95 91 82 54
84 85 84 84 82 76 81 77 70 50 45 57 89 97 96 91 78 57 46 39 40 48 66 95 95 97 96 97 97 98 97 97 97 96 95 94 95 94 96 95 92 82 43 17
90 74 74 75 85 92 97 97 95 73 51 59 93 96 92 89 87 80 69 48 44 45 90 96 96 96 96 96 97 97 97 96 97 96 96 95 95 96 96 94 81 44 21 16
100 100 100 100 97 97 97 90 87 64 56 87 96 98 90 96 94 90 83 65 43 62 97 99 93 96 97 97 97 97 97 97 96 95 94 96 96 95 94 74 41 22 18 13
98 98 98 99 98 88 74 67 71 87 98 96 97 95 96 98 87 90 98 87 78 87 93 100 100 98 96 97 97 96 96 96 96 96 96 95 94 94 80 48 27 19 15 13
98 98 98 98 98 100 100 100 97 96 97 97 96 97 98 96 96 96 96 94 96 97 98 100 97 96 96 96 96 96 97 95 96 96 96 97 94 69 42 24 17 12 10 10
98 98 97 97 96 97 96 96 96 99 98 96 97 96 96 96 97 97 98 96 95 96 98 96 96 97 95 96 96 96 97 96 96 96 88 70 42 27 16 11 10 10 10 11
100 98 98 97 97 96 96 97 97 100 99 97 96 97 97 96 97 96 96 96 98 98 96 96 97 96 96 96 96 96 96 95 96 83 50 23 13 10 9 10 11 11 12 14
100 100 99 98 97 97 98 96 96 97 97 97 97 97 97 97 97 97 97 98 95 96 96 96 96 95 96 96 96 96 96 94 49 13 10 10 11 11 12 14 15 16 18 19
100 100 100 99 99 96 96 98 98 98 98 98 98 98 97 97 97 97 97 97 96 96 96 96 96 96 95 95 96 94 40 13 12 12 14 16 17 17 17 18 20 21 22 26
73 95 98 99 98 98 99 98 98 98 98 97 98 97 98 98 97 97 97 96 96 95 95 93 90 87 79 60 50 24 17 17 17 16 16 17 21 25 30 35 41 44 44 43
45 46 53 84 95 96 97 97 96 96 96 96 96 94 89 89 79 69 61 50 41 31 26 24 22 21 20 19 20 23 27 32 34 34 34 34 35 34 34 36 38 40 41 42
57 56 55 50 49 51 51 50 46 47 50 49 45 46 47 48 46 44 42 41 41 42 40 38 36 34 32 30 29 29 28 28 30 32 33 34 34 34 34 34 34 32 33 34

GFSNGP_700_rhum_222.txt.gz
RH
42 45 48 40 30 14 20 21 49 57 58 57 54 52 55 55 51 50 40 30 28 27 25 22 42 38 37 36 35 63 62 64 73 70 72 76 86 100 99 100 99 99 99 99
60 36 42 54 53 42 30 36 34 29 27 29 30 30 40 51 48 74 54 51 45 42 40 25 43 42 38 37 36 36 68 70 71 72 73 73 81 98 85 98 99 100 99 94
78 61 66 52 46 45 42 52 62 77 94 89 68 45 48 75 72 79 80 72 63 56 50 40 39 47 43 39 40 36 68 77 80 81 80 79 84 88 95 100 97 100 100 100
91 79 83 41 43 74 94 98 92 86 97 98 94 86 72 77 89 88 89 72 63 52 50 50 46 52 50 47 46 43 74 91 96 91 86 89 89 98 100 99 95 99 99 99
86 69 60 33 57 49 48 61 61 74 95 88 80 78 77 81 89 83 78 76 63 56 50 45 40 44 52 58 66 99 100 100 99 98 100 94 95 92 83 93 100 99 99 98
83 77 80 40 59 46 45 48 68 92 85 78 74 68 61 57 57 56 56 55 54 56 58 47 48 52 57 77 100 99 100 99 99 99 98 100 99 84 99 100 90 99 100 98
90 93 81 56 46 53 58 70 76 74 69 62 80 70 56 54 50 48 43 43 44 45 52 57 56 71 71 83 98 100 96 97 93 95 89 100 100 99 98 99 99 100 99 98
73 71 72 43 53 72 76 70 59 56 52 61 61 56 50 40 34 31 37 35 34 25 27 54 54 75 92 99 100 98 100 96 86 91 99 96 98 98 98 99 99 99 98 98
100 93 63 51 55 53 49 70 67 75 67 74 65 55 54 59 61 46 36 18 17 18 31 34 46 70 88 90 100 96 100 90 100 93 95 97 99 99 99 98 99 100 96 96
97 61 60 75 79 85 95 91 90 80 81 86 86 83 83 83 75 62 54 53 30 26 18 25 36 54 86 96 99 94 100 98 99 88 92 89 89 96 96 96 98 96 97 96
96 92 98 97 90 90 91 83 74 72 80 85 82 79 83 87 80 66 57 65 49 30 28 18 28 48 86 87 98 97 99 99 99 99 85 80 87 98 98 97 97 97 97 97
97 88 82 70 66 64 66 59 55 55 49 51 53 53 61 81 89 73 62 70 55 34 34 26 26 46 90 97 97 100 98 99 100 97 92 100 94 96 96 97 97 96 95 95
80 74 72 64 62 71 68 62 58 55 45 37 33 44 49 64 89 87 74 58 51 37 41 52 44 58 97 97 96 98 97 98 98 97 96 95 99 97 94 95 96 96 96 96
79 81 76 81 72 78 76 71 70 61 54 49 37 37 45 64 82 91 74 62 54 53 57 61 64 72 96 97 95 96 98 98 97 97 97 96 96 97 96 96 96 95 95 95
85 92 97 92 89 80 80 82 74 67 63 56 38 34 42 54 86 92 79 67 54 58 60 52 54 73 97 96 97 97 97 97 97 97 97 97 96 94 94 96 95 95 95 96
81 88 91 95 91 97 96 93 85 82 86 78 59 42 45 69 90 92 86 77 60 51 50 46 49 84 96 96 97 97 97 97 97 97 96 96 96 96 96 95 96 96 96 92
90 80 86 91 98 98 98 98 97 97 96 95 72 56 65 92 95 94 99 90 74 51 55 46 50 91 96 96 96 97 97 97 97 96 96 97 96 96 96 96 97 97 92 75
100 100 99 99 98 98 99 97 90 85 82 81 90 94 96 96 88 90 94 98 70 59 54 51 81 95 95 95 97 96 96 96 97 97 97 96 96 96 96 94 95 94 82 44
98 98 98 98 98 97 98 98 97 97 98 98 98 99 99 98 98 95 97 98 94 96 96 88 91 98 98 96 96 96 97 97 96 97 96 96 97 96 95 96 93 69 36 24
100 99 98 99 99 98 98 97 99 98 98 98 97 96 97 96 96 96 96 95 97 99 100 100 97 96 96 96 96 96 96 97 97 95 95 96 96 97 97 90 66 34 22 17
99 100 100 98 99 100 98 97 98 97 97 97 97 97 97 97 97 96 96 97 96 97 97 97 97 95 95 96 97 96 97 97 96 96 96 96 96 94 67 40 25 16 11 10
99 100 100 100 100 99 97 97 97 98 98 98 98 98 98 97 98 97 97 96 97 98 97 96 96 96 96 97 98 97 95 95 96 96 96 95 92 41 18 13 12 12 12 12
100 100 100 99 97 99 99 97 98 99 98 98 99 98 98 98 98 97 97 99 98 97 97 98 97 96 96 96 96 96 96 95 96 96 95 91 47 15 14 14 13 14 14 14
87 99 100 100 99 99 94 97 99 98 99 99 98 98 98 98 97 97 96 98 98 97 96 96 96 96 96 96 96 96 96 95 95 94 74 24 16 17 18 17 16 16 18 21
60 91 96 98 98 96 99 98 99 98 98 98 98 98 98 98 97 97 97 98 98 97 97 96 95 95 94 94 93 92 89 73 39 22 19 19 20 22 27 32 35 36 37 35
74 75 80 93 96 97 97 98 97 97 98 97 97 96 96 96 96 89 72 60 57 51 49 52 46 40 36 32 30 31 33 34 34 32 31 30 30 30 29 29 30 30 31 31
97 100 99 97 91 89 87 88 83 75 69 67 64 61 59 54 51 47 44 41 37 34 32 31 30 29 28 28 28 28 28 28 28 28 28 29 30 32 33 36 39 40 42 44

GFSNGP_700_rhum_225.txt.gz
RH
58 54 43 37 28 18 38 36 40 23 25 20 24 42 40 44 43 32 14 12 16 26 27 27 34 39 47 42 41 39 65 92 65 80 79 79 84 92 99 99 100 98 96 94
54 42 37 76 64 46 46 47 55 50 45 65 58 52 58 70 57 54 57 52 46 35 41 46 39 33 49 44 40 36 33 40 64 67 87 80 75 76 81 92 100 100 98 99
89 75 69 52 80 70 84 93 98 93 98 98 93 91 90 79 81 78 84 76 58 57 52 50 43 40 42 50 46 41 39 38 36 65 76 71 77 80 81 92 96 96 95 99
91 81 91 64 62 59 76 68 68 80 91 89 89 76 78 78 80 84 88 90 82 78 72 59 48 36 34 31 51 47 43 42 40 74 71 81 88 86 95 92 98 98 100 97
94 74 58 36 57 59 69 60 55 60 74 83 80 78 67 62 60 57 54 52 57 62 57 55 51 43 29 28 46 58 64 79 96 98 98 97 97 98 99 100 100 92 98 94
95 96 80 54 60 64 53 49 48 67 62 60 58 60 58 52 48 41 40 40 39 38 39 41 42 42 44 43 61 71 90 100 99 100 100 100 100 99 99 100 100 100 98 100
66 77 66 51 52 40 36 46 53 58 50 48 54 68 60 51 46 35 31 30 28 27 26 23 24 31 51 53 76 87 97 100 100 99 93 99 98 100 97 96 100 98 98 100
79 84 81 47 52 70 79 63 56 64 51 53 53 56 50 49 42 41 44 44 45 38 31 17 14 18 32 49 70 95 94 99 99 91 90 88 94 99 97 99 100 100 99 99
100 90 71 77 94 80 89 83 78 84 80 82 67 60 53 47 45 52 67 62 65 57 43 32 21 13 15 33 58 99 99 95 98 97 91 86 96 95 99 100 98 97 98 98
100 80 86 80 82 95 93 92 82 75 74 71 61 59 63 66 67 64 70 75 72 58 48 35 25 17 12 16 46 89 98 98 91 96 83 88 93 98 99 99 95 98 98 98
70 65 66 63 61 61 57 56 54 54 54 54 51 45 51 61 64 60 65 78 72 60 56 45 28 20 21 20 39 69 94 98 96 97 94 90 91 91 98 96 97 97 97 97
99 100 100 94 97 98 87 75 71 70 53 53 49 38 36 42 41 44 60 71 76 74 59 44 29 22 30 34 34 73 93 96 95 100 100 93 83 87 92 95 96 96 97 97
99 100 100 94 88 94 95 86 79 77 70 58 55 50 33 30 33 45 53 66 81 79 51 35 32 27 40 50 61 90 97 96 100 97 99 99 95 95 86 95 97 95 97 97
97 97 85 83 89 98 100 100 95 87 77 71 58 60 48 29 31 38 47 65 80 82 45 36 37 36 61 58 97 98 99 96 98 97 97 98 96 96 83 86 90 92 96 97
98 100 100 99 100 99 99 98 98 99 99 85 72 68 66 54 36 36 48 71 87 78 53 41 56 58 58 60 95 97 98 97 97 97 97 97 96 96 95 96 97 96 96 96
95 100 99 99 98 98 98 99 100 100 100 97 96 93 86 68 49 51 75 92 85 72 58 53 58 52 56 73 98 96 97 97 97 97 96 97 97 97 100 96 95 96 96 96
92 87 90 92 96 97 96 98 98 97 98 99 91 80 73 75 95 92 90 84 80 83 61 54 44 48 57 87 97 96 97 96 96 97 96 97 97 97 97 96 96 96 96 97
100 100 100 100 99 99 99 99 98 98 96 96 97 97 98 99 100 97 93 90 94 95 78 70 47 50 95 99 98 97 96 96 96 97 96 97 97 96 96 96 96 96 98 98
98 98 99 99 99 100 100 99 98 99 98 97 96 96 96 96 96 96 95 96 98 98 98 89 60 95 97 100 96 97 96 96 96 97 96 97 96 96 96 96 97 97 99 97
97 98 100 100 100 98 97 99 99 99 100 99 98 98 97 96 97 97 97 96 96 97 100 100 96 97 98 97 96 96 96 96 96 97 96 97 97 96 96 96 96 96 95 85
99 100 100 100 99 99 100 100 100 99 100 99 98 98 98 97 98 98 97 97 97 97 97 96 97 97 96 96 96 97 97 96 96 97 96 96 96 95 96 96 94 94 79 30
99 100 100 100 100 99 98 100 99 99 99 99 99 98 98 98 98 98 98 96 97 97 97 96 96 96 97 98 97 97 97 97 97 97 96 96 96 96 96 96 94 90 39 14
99 100 100 100 98 98 100 98 98 99 99 98 98 98 98 98 99 98 97 99 98 98 96 97 98 98 97 96 96 97 96 96 96 96 96 96 95 96 96 94 85 55 18 11
100 99 100 100 100 100 96 97 98 99 98 99 98 98 98 98 98 97 99 99 98 98 97 98 98 97 97 97 96 95 96 96 96 96 96 96 95 92 86 62 36 22 16 16
99 99 100 99 99 99 100 99 99 99 99 98 98 98 98 98 98 98 99 98 97 97 98 96 96 97 97 96 96 96 96 95 95 95 89 72 50 30 23 22 27 31 30 30
95 90 88 86 87 84 88 85 85 79 86 92 94 90 90 89 82 77 75 74 73 74 76 76 77 72 68 66 59 52 42 36 33 31 28 26 25 24 24 25 27 28 28 29
100 93 77 64 58 59 61 67 68 62 55 52 51 46 43 43 42 43 43 43 41 38 36 34 31 27 26 26 26 26 26 27 28 30 30 29 28 29 29 28 26 26 27 27

GFSNGP_700_rhum_228.txt.gz
RH
65 72 71 53 44 36 37 55 51 30 29 34 68 80 87 84 75 68 56 46 45 34 30 24 26 39 42 55 53 49 50 93 91 74 90 98 91 93 100 100 98 99 100 99
66 62 79 85 62 64 78 83 82 69 61 86 100 100 92 93 88 81 73 65 57 46 33 26 32 41 44 44 52 50 48 47 69 86 62 82 80 86 95 99 99 98 99 100
91 66 64 45 69 92 97 96 92 96 96 97 88 89 89 85 84 80 72 68 61 44 38 48 48 47 42 37 36 49 51 49 46 42 50 62 75 82 82 81 79 91 94 100
92 78 94 68 91 92 90 87 88 83 75 78 75 69 71 70 66 64 57 51 47 46 40 38 44 48 42 44 32 31 54 53 54 52 46 61 75 86 84 87 85 93 94 95
97 95 76 59 74 82 83 61 60 60 76 72 65 57 52 47 43 42 40 38 34 27 23 24 30 33 31 35 39 30 39 69 87 96 99 100 100 96 99 100 91 87 94 98
71 79 80 60 54 45 52 45 54 61 48 41 40 42 30 25 31 35 40 39 38 33 26 19 13 15 22 28 35 34 33 68 93 100 100 100 100 100 100 100 100 99 99 99
64 80 60 62 67 66 73 70 56 49 49 47 54 60 49 37 36 39 39 35 31 30 34 28 19 10 7 11 22 37 34 59 82 100 100 100 98 99 99 99 99 100 98 98
93 87 85 76 72 95 91 74 91 73 71 63 61 63 62 59 60 57 39 34 36 46 48 44 38 29 12 6 10 25 33 49 82 89 100 100 100 100 95 100 89 92 93 92
100 92 95 98 86 90 84 76 72 76 73 72 62 61 58 55 53 51 52 50 59 61 57 54 49 38 30 13 6 12 30 46 61 80 100 100 94 97 96 87 83 93 95 99
90 70 65 62 69 71 68 65 63 61 57 55 49 47 42 41 41 41 49 56 60 63 62 61 54 40 35 24 10 7 17 46 58 76 98 100 98 89 96 96 90 91 91 96
74 75 78 73 86 93 82 83 81 79 76 69 61 50 47 38 34 37 45 57 57 56 64 60 58 46 36 28 15 9 13 42 70 90 86 97 86 88 94 94 96 99 96 97
99 100 100 98 99 100 93 94 98 96 75 76 79 64 58 50 37 37 43 50 49 50 61 67 56 39 28 29 22 13 11 22 60 90 99 96 91 96 98 97 98 97 96 99
100 100 97 100 100 100 100 99 98 98 98 88 82 80 62 51 39 32 35 37 41 49 58 67 62 39 28 27 24 18 23 35 63 88 93 96 100 98 94 91 91 96 95 95
97 97 90 97 97 98 97 99 99 99 99 98 95 97 79 60 50 38 31 31 35 46 54 64 62 42 34 26 26 26 44 74 93 97 96 99 99 97 97 87 78 77 93 99
98 98 98 98 99 99 99 98 99 98 98 97 98 98 96 80 66 57 48 36 37 42 58 68 62 44 39 33 34 40 74 100 100 100 97 98 98 98 97 96 92 92 94 96
96 96 95 98 100 100 100 98 98 98 98 100 99 100 95 93 88 78 66 50 43 65 78 71 62 45 46 53 55 53 87 96 97 97 96 96 97 97 96 96 97 96 96 97
91 85 87 88 93 98 100 100 100 100 100 99 98 96 98 98 100 100 97 92 89 83 79 75 65 52 55 58 52 54 95 96 96 96 96 96 96 96 95 96 98 97 97 97
100 100 100 100 100 96 95 97 99 99 98 100 100 100 98 97 96 97 99 98 96 92 89 86 75 56 48 49 51 68 96 96 96 96 96 96 96 96 96 96 96 97 96 96
98 99 100 97 98 99 99 97 98 100 98 98 98 97 99 98 97 96 96 94 92 94 96 97 90 70 75 80 82 96 96 96 97 96 96 96 96 97 97 96 96 96 96 95
100 100 100 99 100 98 98 99 100 99 99 99 99 98 99 99 99 99 98 97 100 97 96 97 96 97 98 95 96 96 96 96 96 96 96 97 96 97 96 96 96 96 96 96
99 99 99 99 99 100 100 98 100 99 99 99 98 97 99 100 98 100 98 97 95 98 98 97 96 96 96 96 96 96 96 96 96 96 97 96 97 96 96 96 96 96 96 95
98 99 100 99 100 100 99 99 100 100 99 99 100 99 99 99 99 98 98 97 99 98 97 97 96 96 96 97 97 96 96 97 96 97 97 96 96 96 96 96 96 96 96 95
99 98 100 98 99 99 99 100 99 99 100 99 99 98 97 98 99 98 94 99 98 98 97 96 97 97 97 96 96 97 97 97 96 97 96 96 95 96 96 96 96 96 96 95
100 100 100 100 100 100 98 98 99 98 100 100 100 99 99 99 99 98 100 99 99 98 96 98 98 98 98 98 98 98 97 98 96 97 96 95 95 96 96 96 96 95 86 62
97 84 74 75 77 91 96 90 95 98 97 97 97 96 96 97 95 97 97 97 97 98 98 97 98 98 97 97 96 97 97 97 97 96 95 95 95 95 92 68 40 34 29 28
93 72 67 72 73 79 66 54 54 53 52 58 60 57 57 57 57 58 57 54 52 55 58 65 65 67 73 76 72 72 73 71 66 58 48 39 33 31 29 27 26 26 26 26
98 80 74 75 75 64 50 52 54 51 55 59 56 39 29 24 22 22 22 22 20 20 21 22 22 22 23 23 22 22 22 22 22 21 19 18 17 17 16 17 17 17 17 18

GFSNGP_700_rhum_231.txt.gz
RH
63 56 59 59 48 53 55 53 64 49 55 77 87 80 86 92 86 85 86 78 78 62 53 41 28 22 30 42 42 46 53 75 100 100 100 100 98 98 99 97 100 99 99 99
79 70 79 61 61 65 91 99 99 94 86 100 98 98 91 97 95 89 84 78 69 65 58 51 41 33 33 40 40 38 52 52 79 100 100 100 100 99 91 94 98 99 99 99
86 65 72 78 99 93 98 96 96 95 94 94 95 96 80 75 65 60 57 53 53 52 49 46 43 44 40 43 41 37 35 54 54 54 68 99 99 100 99 97 97 93 99 99
88 90 93 94 99 97 89 83 77 54 72 84 88 79 71 58 45 39 31 27 31 34 34 34 33 28 25 19 25 36 38 32 52 57 56 48 58 97 91 100 96 95 92 97
96 91 55 61 96 80 75 42 61 48 68 81 68 57 49 39 33 31 28 25 23 22 21 20 21 20 18 14 10 9 23 34 36 65 84 93 90 92 99 100 100 100 93 93
84 86 73 64 51 50 68 60 60 82 71 62 53 46 30 28 30 28 29 24 21 19 17 16 17 14 12 9 7 7 8 16 31 61 99 100 100 100 100 96 99 100 100 93
81 88 72 79 82 78 83 82 69 62 61 60 64 66 59 42 38 47 45 38 29 26 19 17 19 16 11 8 6 6 5 7 15 32 57 94 100 100 97 100 97 96 99 99
94 90 96 88 70 87 92 78 77 65 61 57 55 54 51 46 44 49 53 51 47 44 32 26 25 27 22 17 16 8 5 5 10 21 38 77 100 100 100 100 100 100 100 99
100 91 93 78 88 88 98 89 88 89 82 80 70 69 66 50 40 36 38 41 43 45 42 34 39 47 39 31 23 17 10 5 7 18 26 50 90 100 100 99 100 100 100 98
69 66 71 74 94 97 96 96 89 89 88 89 83 80 76 69 57 43 33 33 33 36 44 39 50 53 55 39 30 23 18 12 7 15 26 30 50 74 100 100 100 95 92 91
72 85 89 90 100 100 91 97 96 90 95 98 97 88 86 80 65 53 37 30 32 36 44 47 53 55 58 48 38 25 20 16 9 8 25 38 45 81 100 100 100 100 98 97
98 100 100 100 100 99 97 100 100 95 84 93 98 91 89 89 83 56 45 33 30 39 46 50 50 55 56 56 42 23 16 18 15 8 22 44 84 100 99 94 97 96 91 92
100 100 100 100 98 100 98 98 99 100 99 96 99 99 97 100 99 66 45 34 31 38 43 47 46 52 57 57 40 23 19 16 15 10 18 45 98 100 100 96 100 100 100 100
100 96 82 94 98 100 100 100 100 100 100 99 99 99 98 99 100 88 58 47 34 35 38 41 44 50 58 57 45 27 23 19 16 16 37 59 99 98 99 99 99 98 100 99
98 100 100 100 100 98 99 98 95 97 98 98 99 100 100 100 100 99 81 57 42 35 32 36 39 46 56 61 51 32 27 21 20 29 83 100 100 100 99 98 99 100 99 95
91 96 93 97 93 98 96 92 94 97 97 97 96 95 98 100 100 100 93 77 64 48 35 35 41 54 64 63 50 36 31 28 35 51 100 98 97 100 97 97 99 97 90 86
90 78 74 78 87 93 97 100 100 100 100 100 100 100 100 100 99 98 98 100 98 77 59 58 63 66 67 61 44 41 44 52 54 75 96 96 97 97 96 97 97 97 96 96
100 100 100 100 99 96 96 99 99 99 98 100 100 100 100 99 98 97 97 97 97 89 79 73 70 71 70 58 48 52 58 57 56 93 96 97 97 96 95 97 97 96 96 96
100 98 100 100 100 100 99 100 100 100 100 100 99 98 100 100 98 100 100 97 96 95 92 87 82 82 78 66 56 50 56 65 91 96 96 96 96 96 97 96 96 96 96 97
100 100 100 100 100 100 99 100 100 100 100 100 100 99 98 100 99 99 100 99 98 96 99 100 98 99 100 98 96 96 95 96 96 96 97 96 96 96 96 97 96 96 96 96
100 100 100 99 99 100 100 100 99 98 100 100 100 98 99 100 99 99 99 96 96 97 97 97 96 97 98 99 97 96 96 96 96 96 96 96 96 97 96 96 95 96 95 96
96 98 99 100 100 100 100 99 100 100 100 99 99 100 100 99 98 98 96 95 97 98 98 98 98 97 96 96 96 96 96 97 97 96 96 97 97 96 96 96 95 95 96 96
94 90 93 99 99 100 99 100 100 99 100 99 99 98 96 98 98 97 88 100 100 98 96 97 98 97 97 96 96 96 96 97 97 97 97 96 96 97 96 96 96 96 96 96
88 80 86 97 99 97 73 82 93 97 97 98 98 99 99 99 99 100 100 100 100 98 95 100 99 98 98 98 98 98 98 98 98 97 97 96 96 96 96 96 96 96 96 96
86 80 84 84 62 57 64 66 75 68 59 53 58 61 66 67 73 87 93 96 98 98 98 98 99 99 98 98 98 98 98 97 97 97 97 97 97 97 96 96 95 95 85 61
88 73 77 77 55 57 61 63 62 34 25 25 23 24 27 28 30 31 30 29 30 34 38 57 74 81 88 90 94 95 96 96 95 95 93 88 82 73 58 43 32 27 23 21
93 80 84 80 55 52 55 62 50 25 23 28 28 30 34 37 40 41 40 39 35 34 34 35 34 34 34 33 32 30 28 28 28 27 24 24 23 22 22 22 23 24 26 27

GFSNGP_700_rhum_234.txt.gz
RH
74 75 61 55 73 69 70 84 82 86 81 90 97 91 89 93 93 96 94 96 91 88 88 78 63 49 44 43 45 42 40 40 59 96 98 100 98 95 99 94 98 99 99 99
86 70 81 97 92 100 100 97 97 96 100 97 98 99 96 94 79 72 70 72 64 61 58 53 54 49 46 43 45 44 40 37 46 66 100 99 100 99 99 100 95 99 99 100
90 78 79 96 99 97 97 95 93 86 85 96 90 85 83 82 80 74 65 54 42 38 40 41 43 42 40 35 35 40 42 39 34 45 73 100 100 99 100 99 100 99 98 98
92 64 88 64 97 97 97 94 53 48 72 90 99 93 84 75 62 54 47 36 26 24 25 32 31 29 31 31 27 22 17 21 32 30 42 58 60 94 100 100 99 98 97 98
91 77 56 98 100 96 97 84 86 78 84 90 80 72 70 61 55 49 41 33 29 23 19 17 23 20 22 24 20 18 15 10 9 21 28 48 58 60 59 100 96 98 99 100
83 91 86 96 82 81 74 71 68 74 61 58 58 58 40 40 40 37 38 35 28 26 18 15 13 15 16 16 15 12 10 8 6 6 15 27 87 91 78 85 99 99 100 99
91 92 77 93 86 60 71 77 74 75 79 78 78 77 53 42 36 37 33 33 33 37 30 16 21 13 13 11 10 9 8 6 5 5 6 13 28 92 100 100 99 100 99 95
85 85 96 87 81 95 98 92 97 97 97 96 96 84 72 64 58 49 42 34 33 33 34 28 31 31 21 14 13 12 10 8 6 4 4 7 15 34 75 100 95 96 89 99
100 94 90 99 100 100 100 99 100 100 100 100 99 94 85 78 76 62 50 45 41 34 30 32 36 40 34 30 26 25 21 15 10 7 4 5 11 22 39 86 97 87 99 100
78 75 76 95 97 99 100 99 99 100 99 100 100 100 94 91 89 88 78 53 45 41 30 30 34 37 39 42 44 37 30 25 20 14 8 5 10 19 32 78 100 99 96 98
67 86 79 85 98 100 94 100 100 100 100 99 96 93 98 94 97 100 94 73 50 40 31 28 29 35 44 52 52 48 37 30 23 22 15 7 6 18 25 31 66 100 100 100
92 100 100 100 100 97 99 99 100 100 98 100 100 97 95 94 99 100 98 91 61 44 38 30 34 41 51 54 55 53 44 37 20 17 19 14 7 11 27 42 63 88 98 94
98 96 100 100 100 100 96 97 99 100 100 98 99 100 98 96 99 99 100 100 78 53 39 32 39 45 50 50 54 56 52 36 21 16 13 13 9 10 42 71 97 92 100 93
100 94 79 92 88 92 97 100 100 100 100 100 100 100 99 99 99 99 99 100 88 63 47 36 39 44 46 46 50 52 52 43 27 18 14 15 11 11 48 98 100 100 100 100
99 100 100 100 100 100 100 96 90 94 96 97 100 100 100 97 95 96 99 100 97 78 54 39 38 38 40 44 47 52 54 49 34 24 16 16 19 24 46 99 100 99 98 100
89 98 100 99 97 99 98 91 87 88 93 93 96 98 99 100 100 100 100 99 100 99 80 55 41 35 36 41 45 52 57 52 38 30 21 22 40 78 71 98 98 98 98 98
84 76 78 85 92 91 94 100 100 100 100 98 98 100 100 100 100 100 100 100 98 98 100 97 65 46 41 44 51 52 50 48 38 34 31 51 65 98 98 99 98 97 96 97
100 100 100 99 98 95 97 100 100 100 100 99 100 100 100 99 99 98 99 100 100 100 100 97 86 75 67 61 58 54 49 42 48 46 54 61 86 96 98 98 97 96 96 97
100 100 100 100 100 100 100 100 100 100 100 99 98 98 100 100 100 100 100 100 100 100 97 94 86 77 71 69 64 54 45 44 48 53 68 91 96 99 98 96 96 96 96 97
100 100 100 100 100 100 100 100 100 100 100 100 100 100 99 98 100 99 99 97 97 97 98 98 94 91 91 90 83 71 69 68 81 95 100 97 99 97 96 96 96 96 95 97
100 100 100 100 100 100 100 100 100 100 100 100 100 100 100 100 100 99 98 96 96 100 99 99 99 98 97 96 97 97 98 99 99 100 96 96 96 96 96 96 97 97 96 96
91 90 98 98 98 97 99 99 100 100 100 100 100 100 100 100 100 97 94 99 98 99 96 94 95 96 97 97 97 97 99 98 97 97 97 96 97 97 97 97 96 96 96 96
85 88 93 82 86 79 86 88 85 86 91 99 99 97 97 98 99 96 88 98 100 99 98 99 100 98 98 97 98 98 98 97 97 97 97 98 97 97 97 97 96 97 97 96
82 91 84 74 76 80 74 40 30 28 31 31 34 48 63 69 83 98 100 100 100 100 95 100 99 99 98 98 98 98 98 98 98 98 97 97 97 96 96 96 96 97 96 96
81 91 80 70 73 71 56 27 29 30 35 40 39 40 44 44 46 54 53 52 65 88 97 98 99 100 98 98 98 98 97 97 97 98 97 97 97 97 97 97 97 97 96 96
84 79 76 65 68 67 53 28 28 31 34 37 39 41 45 49 51 56 55 54 49 52 52 55 62 72 85 95 97 96 97 97 97 96 97 96 94 92 91 87 77 60 51 40
92 85 87 72 68 63 64 35 31 36 38 42 47 46 44 47 53 56 52 52 56 60 67 71 71 71 73 72 69 64 62 60 63 61 54 49 42 36 34 34 35 36 34 34